EW8578 Weather Reports


Display with metric or nautical units.
time (UTC)temp
F
wind
direction
speed
MPH
gust
MPH
rain 1hr
in
rain 24hr
in
rain mn
in
humidity
%
barometer
mb
20260507234543 41 109 2.0 3.0 0.00 0.00 0.00 73 1017.4
20260507234039 41 103 1.0 3.0 0.00 0.00 0.00 74 1017.4
20260507233537 41 116 1.0 3.0 0.00 0.00 0.00 74 1017.4
20260507233037 41 111 2.0 4.0 0.00 0.00 0.00 74 1017.3
20260507232537 41 109 2.0 4.0 0.00 0.00 0.00 74 1017.3
20260507232036 42 105 1.0 3.0 0.00 0.00 0.00 75 1017.4
20260507231543 42 114 2.0 3.0 0.00 0.00 0.00 75 1017.3
20260507231036 42 106 1.0 3.0 0.00 0.00 0.00 74 1017.4
20260507230540 42 111 1.0 3.0 0.00 0.00 0.00 74 1017.5
20260507230035 43 101 1.0 3.0 0.00 0.00 0.00 74 1017.5
20260507225535 43 155 1.0 3.0 0.00 0.00 0.00 74 1017.5
20260507224536 43 136 1.0 3.0 0.00 0.00 0.00 73 1017.4
20260507224035 43 115 1.0 3.0 0.00 0.00 0.00 73 1017.4
20260507223538 43 159 1.0 3.0 0.00 0.00 0.00 73 1017.4
20260507223035 43 161 1.0 4.0 0.00 0.00 0.00 72 1017.3
20260507222535 44 149 1.0 4.0 0.00 0.00 0.00 72 1017.3
20260507222035 44 165 2.0 4.0 0.00 0.00 0.00 72 1017.4
20260507221534 44 160 1.0 4.0 0.00 0.00 0.00 72 1017.4
20260507221034 44 173 2.0 4.0 0.00 0.00 0.00 71 1017.4
20260507220536 44 117 2.0 6.0 0.00 0.00 0.00 72 1017.4
20260507220034 44 169 3.0 7.0 0.00 0.00 0.00 72 1017.4
20260507215534 44 138 3.0 7.0 0.00 0.00 0.00 73 1017.4
20260507214533 43 165 1.0 4.0 0.00 0.00 0.00 72 1017.3
20260507214033 43 114 2.0 4.0 0.00 0.00 0.00 71 1017.3
20260507213533 43 127 1.0 3.0 0.00 0.00 0.00 70 1017.3
20260507213039 44 116 1.0 4.0 0.00 0.00 0.00 70 1017.3
20260507212532 44 121 2.0 4.0 0.00 0.00 0.00 69 1017.2
20260507212038 44 136 1.0 3.0 0.00 0.00 0.00 68 1017.1
20260507211543 45 145 2.0 5.0 0.00 0.00 0.00 67 1017.1
20260507211032 45 155 2.0 5.0 0.00 0.00 0.00 66 1017.1
20260507210532 46 165 2.0 4.0 0.00 0.00 0.00 65 1017.1
20260507210034 46 147 1.0 6.0 0.00 0.00 0.00 65 1017.1
20260507205532 46 144 2.0 5.0 0.00 0.00 0.00 66 1017.0
20260507204531 45 149 2.0 6.0 0.00 0.00 0.00 69 1016.9
20260507204031 45 126 2.0 5.0 0.00 0.00 0.00 70 1016.9
20260507203531 45 148 2.0 5.0 0.00 0.00 0.00 69 1016.9
20260507203034 46 172 2.0 4.0 0.00 0.00 0.00 69 1016.9
20260507202530 46 172 2.0 4.0 0.00 0.00 0.00 67 1016.8
20260507202031 46 165 2.0 4.0 0.00 0.00 0.00 67 1016.8
20260507201530 46 173 1.0 6.0 0.00 0.00 0.00 66 1016.8
20260507201030 46 170 2.0 5.0 0.00 0.00 0.00 66 1016.8
20260507200530 47 180 2.0 5.0 0.00 0.00 0.00 66 1016.8
20260507200031 47 126 2.0 4.0 0.00 0.00 0.00 65 1016.7
20260507195529 47 138 2.0 4.0 0.00 0.00 0.00 65 1016.7
20260507194531 48 131 2.0 5.0 0.00 0.00 0.00 66 1016.7
20260507194029 48 169 2.0 5.0 0.00 0.00 0.00 65 1016.6
20260507193530 49 167 1.0 4.0 0.00 0.00 0.00 65 1016.6
20260507193031 49 180 1.0 3.0 0.00 0.00 0.00 66 1016.5
20260507192530 49 192 1.0 4.0 0.00 0.00 0.00 65 1016.5
20260507192032 49 192 2.0 4.0 0.00 0.00 0.00 63 1016.5
20260507191530 50 213 3.0 4.0 0.00 0.00 0.00 65 1016.4
20260507191032 51 212 2.0 3.0 0.00 0.00 0.00 66 1016.3
20260507190529 51 211 2.0 3.0 0.00 0.00 0.00 61 1016.3
20260507190028 52 218 2.0 3.0 0.00 0.00 0.00 60 1016.3
20260507185527 51 355 0.0 1.0 0.00 0.00 0.00 52 1016.3
20260507184528 51 355 0.0 1.0 0.00 0.00 0.00 54 1016.2
20260507184032 50 355 0.0 1.0 0.00 0.00 0.00 57 1016.2
20260507183529 50 355 0.0 2.0 0.00 0.00 0.00 58 1016.2
20260507183027 50 355 0.0 2.0 0.00 0.00 0.00 58 1016.2
20260507182527 50 355 0.0 3.0 0.00 0.00 0.00 60 1016.1
20260507182029 51 355 1.0 3.0 0.00 0.00 0.00 58 1016.1
20260507181527 52 254 0.0 1.0 0.00 0.00 0.00 53 1016.1
20260507181027 52 254 0.0 1.0 0.00 0.00 0.00 52 1016.1
20260507180527 52 254 0.0 1.0 0.00 0.00 0.00 56 1016.1
20260507180026 52 246 0.0 1.0 0.00 0.00 0.00 53 1016.1
20260507175525 52 246 0.0 3.0 0.00 0.00 0.00 60 1016.1
20260507174542 52 246 1.0 3.0 0.00 0.00 0.00 58 1016.1
20260507174024 53 229 1.0 2.0 0.00 0.00 0.00 63 1016.1
20260507173527 53 207 0.0 2.0 0.00 0.00 0.00 63 1016.1
20260507173025 53 257 0.0 2.0 0.00 0.00 0.00 65 1016.1
20260507172522 52 257 1.0 3.0 0.00 0.00 0.00 65 1016.1
20260507172024 52 242 2.0 4.0 0.00 0.00 0.00 63 1016.1
20260507171528 52 221 2.0 4.0 0.00 0.00 0.00 58 1016.1
20260507171021 51 224 2.0 4.0 0.00 0.00 0.00 61 1016.0
20260507170522 51 216 2.0 4.0 0.00 0.00 0.00 63 1016.1
20260507170024 51 209 3.0 5.0 0.00 0.00 0.00 56 1016.1
20260507165524 52 217 3.0 5.0 0.00 0.00 0.00 49 1016.1
20260507164524 52 217 2.0 4.0 0.00 0.00 0.00 47 1016.0
20260507164021 52 211 2.0 3.0 0.00 0.00 0.00 45 1015.9
20260507163521 53 220 1.0 3.0 0.00 0.00 0.00 45 1016.0
20260507163023 53 220 1.0 2.0 0.00 0.00 0.00 45 1016.0
20260507162520 53 43 0.0 2.0 0.00 0.00 0.00 47 1016.0
20260507162020 52 40 0.0 2.0 0.00 0.00 0.00 47 1016.1
20260507161521 52 5 0.0 2.0 0.00 0.00 0.00 49 1016.1
20260507161020 52 5 0.0 1.0 0.00 0.00 0.00 52 1016.2
20260507160518 52 5 0.0 2.0 0.00 0.00 0.00 52 1016.1
20260507160018 53 5 1.0 3.0 0.00 0.00 0.00 53 1016.1
20260507155516 53 5 1.0 3.0 0.00 0.00 0.00 53 1016.1
20260507154519 53 5 1.0 3.0 0.00 0.00 0.00 52 1016.1
20260507154014 53 5 1.0 3.0 0.00 0.00 0.00 47 1016.1
20260507153514 52 9 1.0 3.0 0.00 0.00 0.00 49 1016.1
20260507153018 52 9 2.0 3.0 0.00 0.00 0.00 59 1016.1
20260507152517 51 9 1.0 3.0 0.00 0.00 0.00 57 1016.2
20260507152015 51 11 1.0 3.0 0.00 0.00 0.00 56 1016.2
20260507151514 52 5 1.0 4.0 0.00 0.00 0.00 55 1016.2
20260507151013 52 5 2.0 4.0 0.00 0.00 0.00 57 1016.1
20260507150513 52 5 1.0 3.0 0.00 0.00 0.00 54 1016.2
20260507150016 52 22 1.0 5.0 0.00 0.00 0.00 56 1016.3
20260507145513 52 5 2.0 5.0 0.00 0.00 0.00 62 1016.3
20260507144513 52 360 3.0 5.0 0.00 0.00 0.00 62 1016.3
20260507144013 52 14 1.0 4.0 0.00 0.00 0.00 58 1016.3
20260507143512 52 5 2.0 3.0 0.00 0.00 0.00 60 1016.3
20260507143012 52 21 1.0 4.0 0.00 0.00 0.00 58 1016.3
20260507142514 52 11 2.0 4.0 0.00 0.00 0.00 60 1016.4
20260507142014 52 5 2.0 4.0 0.00 0.00 0.00 59 1016.4
20260507141512 53 5 2.0 3.0 0.00 0.00 0.00 57 1016.5
20260507141015 53 10 1.0 3.0 0.00 0.00 0.00 54 1016.5
20260507140514 53 10 2.0 4.0 0.00 0.00 0.00 57 1016.5
20260507140027 53 9 2.0 4.0 0.00 0.00 0.00 58 1016.5
20260507135512 53 5 1.0 3.0 0.00 0.00 0.00 59 1016.5
20260507134510 52 12 1.0 2.0 0.00 0.00 0.00 57 1016.6
20260507134012 51 20 1.0 2.0 0.00 0.00 0.00 55 1016.6
20260507133509 51 20 1.0 3.0 0.00 0.00 0.00 55 1016.6
20260507133009 51 19 1.0 4.0 0.00 0.00 0.00 58 1016.7
20260507132508 51 14 2.0 4.0 0.00 0.00 0.00 58 1016.7
20260507132009 51 5 2.0 4.0 0.00 0.00 0.00 58 1016.7
20260507131508 51 9 2.0 4.0 0.00 0.00 0.00 57 1016.7
20260507131007 51 22 1.0 4.0 0.00 0.00 0.00 58 1016.7
20260507130507 51 15 2.0 3.0 0.00 0.00 0.00 57 1016.7
20260507130006 51 9 1.0 3.0 0.00 0.00 0.00 56 1016.7
20260507125506 50 5 2.0 5.0 0.00 0.00 0.00 59 1016.8
20260507124504 50 5 2.0 4.0 0.00 0.00 0.00 60 1016.8
20260507124002 50 5 2.0 4.0 0.00 0.00 0.00 61 1016.8
20260507123502 50 360 2.0 3.0 0.00 0.00 0.00 59 1016.9
20260507123002 50 355 2.0 4.0 0.00 0.00 0.00 58 1016.9
20260507122501 50 24 2.0 4.0 0.00 0.00 0.00 61 1016.8
20260507122104 50 9 3.0 4.0 0.00 0.00 0.00 61 1016.9
20260507121601 50 5 2.0 4.0 0.00 0.00 0.00 59 1016.9
20260507121059 50 5 2.0 3.0 0.00 0.00 0.00 58 1016.9
20260507120559 50 28 1.0 3.0 0.00 0.00 0.00 57 1016.9
20260507120059 50 17 1.0 3.0 0.00 0.00 0.00 56 1016.9
20260507115558 49 24 2.0 4.0 0.00 0.00 0.00 57 1016.9
20260507114558 49 14 2.0 4.0 0.00 0.00 0.00 60 1017.0
20260507114157 49 9 2.0 4.0 0.00 0.00 0.00 60 1017.0
20260507113559 49 5 2.0 5.0 0.00 0.00 0.00 61 1017.0
20260507113128 49 9 2.0 4.0 0.00 0.00 0.00 61 1017.0
20260507112556 49 5 2.0 4.0 0.00 0.00 0.00 64 1017.1
20260507112057 48 5 2.0 4.0 0.00 0.00 0.00 62 1017.2
20260507111553 48 12 2.0 4.0 0.00 0.00 0.00 63 1017.2
20260507111052 48 5 2.0 5.0 0.00 0.00 0.00 64 1017.2
20260507110552 48 5 3.0 5.0 0.00 0.00 0.00 64 1017.3
20260507110052 47 360 3.0 5.0 0.00 0.00 0.00 65 1017.2
20260507105551 48 360 3.0 5.0 0.00 0.00 0.00 66 1017.2
20260507104600 47 5 3.0 5.0 0.00 0.00 0.00 66 1017.2
20260507104050 47 5 2.0 5.0 0.00 0.00 0.00 66 1017.2
20260507103650 47 5 3.0 5.0 0.00 0.00 0.00 66 1017.2
20260507103050 47 360 3.0 5.0 0.00 0.00 0.00 66 1017.2
20260507102549 47 360 2.0 5.0 0.00 0.00 0.00 66 1017.2
20260507102050 47 5 3.0 5.0 0.00 0.00 0.00 67 1017.2
20260507101553 47 9 2.0 4.0 0.00 0.00 0.00 66 1017.2
20260507101050 47 5 1.0 5.0 0.00 0.00 0.00 68 1017.2
20260507100548 46 5 3.0 5.0 0.00 0.00 0.00 66 1017.2
20260507100056 47 5 3.0 5.0 0.00 0.00 0.00 65 1017.2
20260507095547 47 5 2.0 4.0 0.00 0.00 0.00 66 1017.2
20260507094552 47 5 1.0 4.0 0.00 0.00 0.00 66 1017.1
20260507094051 47 5 2.0 3.0 0.00 0.00 0.00 66 1017.1
20260507093548 47 15 1.0 3.0 0.00 0.00 0.00 67 1017.1
20260507093046 47 13 1.0 4.0 0.00 0.00 0.00 69 1017.1
20260507092545 46 17 1.0 4.0 0.00 0.00 0.00 71 1017.2
20260507092049 46 10 2.0 4.0 0.00 0.00 0.00 72 1017.2
20260507091547 46 5 1.0 4.0 0.00 0.00 0.00 73 1017.2
20260507091043 46 11 1.0 4.0 0.00 0.00 0.00 74 1017.2
20260507090543 46 11 1.0 4.0 0.00 0.00 0.00 75 1017.2
20260507090041 45 5 2.0 5.0 0.00 0.00 0.00 75 1017.2
20260507085540 45 5 2.0 5.0 0.00 0.00 0.00 76 1017.2
20260507084550 45 5 2.0 5.0 0.00 0.00 0.00 76 1017.1
20260507084038 45 5 1.0 5.0 0.00 0.00 0.00 77 1017.1
20260507083536 44 5 2.0 5.0 0.00 0.00 0.00 77 1017.1
20260507083035 44 5 2.0 4.0 0.00 0.00 0.00 77 1017.0
20260507082535 44 312 1.0 3.0 0.00 0.00 0.00 77 1017.1
20260507082034 44 49 0.0 2.0 0.00 0.00 0.00 79 1017.1
20260507081532 43 97 1.0 2.0 0.00 0.00 0.00 80 1017.0
20260507081031 42 103 1.0 3.0 0.00 0.00 0.00 80 1017.0
20260507080529 41 132 1.0 3.0 0.00 0.00 0.00 81 1017.0
20260507080030 41 109 1.0 3.0 0.00 0.00 0.00 79 1017.0
20260507075530 41 99 1.0 3.0 0.00 0.00 0.00 79 1017.0
20260507074528 41 101 1.0 3.0 0.00 0.00 0.00 81 1016.9
20260507074026 41 115 1.0 3.0 0.00 0.00 0.00 81 1016.9
20260507073525 40 124 1.0 2.0 0.00 0.00 0.00 81 1016.9
20260507073026 40 128 1.0 2.0 0.00 0.00 0.00 81 1016.8
20260507072524 40 84 0.0 2.0 0.00 0.00 0.00 82 1016.8
20260507072023 39 84 0.0 2.0 0.00 0.00 0.00 81 1016.8
20260507071523 39 101 0.0 2.0 0.00 0.00 0.00 81 1016.7
20260507071022 39 101 1.0 3.0 0.00 0.00 0.00 81 1016.8
20260507070522 39 100 1.0 3.0 0.00 0.00 0.00 80 1016.8
20260507070024 39 100 0.0 2.0 0.00 0.00 0.00 80 1016.8
20260507065522 39 100 0.0 1.0 0.00 0.00 0.00 80 1016.7
20260507064523 39 100 0.0 1.0 0.00 0.00 0.00 80 1016.7
20260507064023 40 100 0.0 1.0 0.00 0.00 0.00 80 1016.7
20260507063523 40 100 0.0 1.0 0.00 0.00 0.00 80 1016.7
20260507063022 40 100 0.0 0.0 0.00 0.00 0.00 81 1016.8
20260507062521 40 100 0.0 0.0 0.00 0.00 0.00 81 1016.7
20260507062021 39 100 0.0 1.0 0.00 0.00 0.00 81 1016.7
20260507061521 39 100 0.0 1.0 0.00 0.00 0.00 81 1016.7
20260507061020 39 100 0.0 1.0 0.00 0.00 0.00 81 1016.8
20260507060520 39 100 0.0 1.0 0.00 0.00 0.00 82 1016.7
20260507060031 39 100 0.0 1.0 0.00 0.00 0.00 82 1016.7
20260507055519 39 100 0.0 0.0 0.00 0.00 0.00 82 1016.6
20260507054525 38 100 0.0 1.0 0.00 0.00 0.00 82 1016.6
20260507054020 38 100 0.0 2.0 0.00 0.00 0.00 82 1016.6
20260507053518 37 100 0.0 2.0 0.00 0.00 0.00 82 1016.6
20260507053016 37 100 1.0 3.0 0.00 0.00 0.00 82 1016.6
20260507052519 37 105 1.0 3.0 0.00 0.00 0.00 82 1016.5
20260507052016 37 117 1.0 3.0 0.00 0.00 0.00 82 1016.5
20260507051516 37 101 2.0 3.0 0.00 0.00 0.00 81 1016.4
20260507051018 36 102 2.0 3.0 0.00 0.00 0.00 81 1016.3
20260507050513 36 96 1.0 3.0 0.00 0.00 0.00 82 1016.3
20260507050035 36 86 1.0 3.0 0.00 0.00 0.00 82 1016.2
20260507045513 36 88 1.0 2.0 0.00 0.00 0.00 82 1016.2
20260507044521 36 74 1.0 3.0 0.00 0.00 0.00 82 1016.2
20260507044014 36 101 1.0 3.0 0.00 0.00 0.00 82 1016.2
20260507043514 36 91 1.0 3.0 0.00 0.00 0.00 82 1016.2
20260507043014 36 91 2.0 3.0 0.00 0.00 0.00 81 1016.2
20260507042514 36 88 1.0 3.0 0.00 0.00 0.00 81 1016.2
20260507042014 35 101 2.0 3.0 0.00 0.00 0.00 81 1016.2
20260507041513 35 91 1.0 3.0 0.00 0.00 0.00 81 1016.2
20260507041013 35 91 1.0 3.0 0.00 0.00 0.00 80 1016.1
20260507040512 35 91 1.0 4.0 0.00 0.00 0.00 80 1016.1
20260507040014 35 97 2.0 4.0 0.00 0.00 0.00 80 1016.1
20260507035512 35 98 2.0 4.0 0.00 0.00 0.00 80 1016.1
20260507034512 35 103 3.0 4.0 0.00 0.00 0.00 80 1016.0
20260507034017 35 101 3.0 4.0 0.00 0.00 0.00 80 1016.0
20260507033511 35 98 3.0 6.0 0.00 0.00 0.00 80 1016.0
20260507033016 35 96 3.0 6.0 0.00 0.00 0.00 80 1016.0
20260507032511 35 105 3.0 6.0 0.00 0.00 0.00 80 1016.0
20260507032010 35 100 3.0 4.0 0.00 0.00 0.00 80 1016.0
20260507031510 35 103 3.0 4.0 0.00 0.00 0.00 79 1015.9
20260507031010 35 101 3.0 4.0 0.00 0.00 0.00 79 1015.9
20260507030510 35 96 3.0 6.0 0.00 0.00 0.00 79 1016.0
20260507030009 35 104 3.0 6.0 0.00 0.00 0.00 79 1016.0
20260507025509 35 97 3.0 6.0 0.00 0.00 0.00 78 1015.8
20260507024515 35 113 3.0 6.0 0.00 0.00 0.00 79 1015.8
20260507024009 35 105 3.0 6.0 0.00 0.00 0.00 78 1015.8
20260507023509 35 113 2.0 6.0 0.00 0.00 0.00 78 1015.8
20260507023007 35 102 3.0 4.0 0.00 0.00 0.00 78 1015.7
20260507022506 35 92 3.0 4.0 0.00 0.00 0.00 78 1015.7
20260507022006 35 96 3.0 4.0 0.00 0.00 0.00 78 1015.7
20260507021516 36 105 3.0 4.0 0.00 0.00 0.00 78 1015.7
20260507021005 36 112 3.0 4.0 0.00 0.00 0.00 78 1015.6
20260507020505 36 111 3.0 4.0 0.00 0.00 0.00 78 1015.6
20260507020005 36 92 2.0 4.0 0.00 0.00 0.00 78 1015.6
20260507015506 36 76 2.0 6.0 0.00 0.00 0.00 78 1015.7
20260507014503 36 94 3.0 6.0 0.00 0.00 0.00 78 1015.6
20260507014002 36 110 3.0 6.0 0.00 0.00 0.00 78 1015.6
20260507013502 36 109 3.0 6.0 0.00 0.00 0.00 78 1015.6
20260507013004 36 98 3.0 4.0 0.00 0.00 0.00 78 1015.7
20260507012502 36 98 2.0 4.0 0.00 0.00 0.00 77 1015.6
20260507012100 36 110 3.0 4.0 0.00 0.00 0.00 77 1015.6
20260507011604 36 95 2.0 4.0 0.00 0.00 0.00 77 1015.5
20260507011057 36 106 2.0 4.0 0.00 0.00 0.00 77 1015.5
20260507010557 37 80 2.0 4.0 0.00 0.00 0.00 77 1015.5
20260507010056 37 86 2.0 4.0 0.00 0.00 0.00 76 1015.5
20260507005556 37 90 2.0 3.0 0.00 0.00 0.00 76 1015.5
20260507004555 38 137 1.0 3.0 0.00 0.00 0.00 77 1015.5
20260507004054 38 261 2.0 3.0 0.00 0.00 0.00 77 1015.5
20260507003553 38 239 1.0 3.0 0.00 0.00 0.00 77 1015.4
20260507003051 38 87 0.0 2.0 0.00 0.00 0.00 77 1015.5
20260507002551 37 82 0.0 3.0 0.00 0.00 0.00 77 1015.4
20260507002050 37 81 1.0 3.0 0.00 0.00 0.00 77 1015.4
20260507001548 37 94 0.0 3.0 0.00 0.00 0.00 77 1015.4
20260507001048 37 94 1.0 3.0 0.00 0.00 0.00 76 1015.4
20260507000547 37 96 2.0 3.0 0.00 0.00 0.00 76 1015.4
20260507000047 37 96 2.0 3.0 0.00 0.00 0.00 76 1015.4
20260506235547 37 93 1.0 4.0 0.00 0.00 0.00 75 1015.5